| time (UTC) | temp F | wind direction | speed MPH | gust MPH | rain 1hr in | rain 24hr in | rain mn in | humidity % | barometer mb |
| 20260509174507 | 59 | 321 | 4.0 | 8.0 | 0.00 | 0.00 | 0.00 | 88 | 1022.6 |
| 20260509173006 | 59 | 301 | 3.0 | 7.0 | 0.00 | 0.00 | 0.00 | 89 | 1022.6 |
| 20260509171505 | 60 | 317 | 3.0 | 7.0 | 0.00 | 0.00 | 0.00 | 88 | 1022.6 |
| 20260509170004 | 59 | 338 | 3.0 | 8.0 | 0.00 | 0.00 | 0.00 | 87 | 1022.5 |
| 20260509164502 | 59 | 7 | 1.0 | 4.0 | 0.00 | 0.00 | 0.00 | 90 | 1022.6 |
| 20260509163058 | 58 | 338 | 0.0 | 2.0 | 0.00 | 0.00 | 0.00 | 91 | 1022.8 |
| 20260509161558 | 56 | 68 | 1.0 | 4.0 | 0.00 | 0.00 | 0.00 | 94 | 1022.6 |
| 20260509160053 | 55 | 26 | 1.0 | 5.0 | 0.00 | 0.00 | 0.00 | 94 | 1022.7 |
| 20260509154550 | 55 | 104 | 0.0 | 3.0 | 0.00 | 0.00 | 0.00 | 98 | 1022.7 |
| 20260509153045 | 53 | 16 | 0.0 | 3.0 | 0.00 | 0.00 | 0.00 | 100 | 1023.3 |
| 20260509151544 | 51 | 15 | 1.0 | 4.0 | 0.00 | 0.00 | 0.00 | 100 | 1023.3 |
| 20260509150043 | 50 | 259 | 0.0 | 0.0 | 0.00 | 0.00 | 0.00 | 100 | 1023.3 |
| 20260509144543 | 48 | 259 | 0.0 | 0.0 | 0.00 | 0.00 | 0.00 | 100 | 1023.3 |
| 20260509143042 | 46 | 259 | 0.0 | 0.0 | 0.00 | 0.00 | 0.00 | 100 | 1023.6 |
| 20260509141541 | 45 | 259 | 0.0 | 0.0 | 0.00 | 0.00 | 0.00 | 100 | 1023.5 |
| 20260509140042 | 44 | 259 | 0.0 | 0.0 | 0.00 | 0.00 | 0.00 | 100 | 1023.5 |
| 20260509134540 | 44 | 259 | 0.0 | 0.0 | 0.00 | 0.00 | 0.00 | 100 | 1023.2 |
| 20260509133039 | 43 | 259 | 0.0 | 0.0 | 0.00 | 0.00 | 0.00 | 100 | 1023.3 |
| 20260509131541 | 44 | 259 | 0.0 | 0.0 | 0.00 | 0.00 | 0.00 | 100 | 1023.5 |
| 20260509130050 | 43 | 259 | 0.0 | 0.0 | 0.00 | 0.00 | 0.00 | 100 | 1023.5 |
| 20260509124539 | 44 | 259 | 0.0 | 0.0 | 0.00 | 0.00 | 0.00 | 100 | 1023.7 |
| 20260509123033 | 44 | 259 | 0.0 | 0.0 | 0.00 | 0.00 | 0.00 | 100 | 1023.7 |
| 20260509121530 | 44 | 259 | 0.0 | 0.0 | 0.00 | 0.00 | 0.00 | 100 | 1023.9 |
| 20260509120032 | 45 | 259 | 0.0 | 0.0 | 0.00 | 0.00 | 0.00 | 100 | 1024.1 |
| 20260509114526 | 45 | 259 | 0.0 | 0.0 | 0.00 | 0.00 | 0.00 | 100 | 1024.2 |
| 20260509113024 | 46 | 259 | 0.0 | 0.0 | 0.00 | 0.00 | 0.00 | 100 | 1024.1 |
| 20260509111522 | 46 | 259 | 0.0 | 0.0 | 0.00 | 0.00 | 0.00 | 100 | 1024.2 |
| 20260509110021 | 47 | 259 | 0.0 | 0.0 | 0.00 | 0.00 | 0.00 | 100 | 1024.3 |
| 20260509104518 | 48 | 259 | 0.0 | 0.0 | 0.00 | 0.00 | 0.00 | 100 | 1024.4 |
| 20260509103019 | 48 | 259 | 0.0 | 0.0 | 0.00 | 0.00 | 0.00 | 100 | 1024.3 |
| 20260509101516 | 47 | 259 | 0.0 | 0.0 | 0.00 | 0.00 | 0.00 | 100 | 1024.6 |
| 20260509100020 | 48 | 259 | 0.0 | 0.0 | 0.00 | 0.00 | 0.00 | 100 | 1024.5 |
| 20260509094510 | 49 | 259 | 0.0 | 0.0 | 0.00 | 0.00 | 0.00 | 99 | 1024.4 |
| 20260509093008 | 50 | 259 | 0.0 | 0.0 | 0.00 | 0.00 | 0.00 | 99 | 1024.4 |
| 20260509091504 | 51 | 259 | 0.0 | 0.0 | 0.00 | 0.00 | 0.00 | 100 | 1024.6 |
| 20260509090003 | 52 | 259 | 0.0 | 0.0 | 0.00 | 0.00 | 0.00 | 100 | 1024.6 |
| 20260509084600 | 52 | 259 | 0.0 | 0.0 | 0.00 | 0.00 | 0.00 | 100 | 1024.8 |
| 20260509083059 | 52 | 259 | 0.0 | 0.0 | 0.00 | 0.00 | 0.00 | 100 | 1024.9 |
| 20260509081603 | 52 | 259 | 0.0 | 0.0 | 0.00 | 0.00 | 0.00 | 100 | 1024.9 |
| 20260509080101 | 52 | 261 | 0.0 | 0.0 | 0.00 | 0.00 | 0.00 | 100 | 1024.9 |
| 20260509074555 | 52 | 261 | 0.0 | 0.0 | 0.00 | 0.00 | 0.00 | 100 | 1024.9 |
| 20260509073054 | 52 | 261 | 0.0 | 0.0 | 0.00 | 0.00 | 0.00 | 100 | 1024.9 |
| 20260509071557 | 52 | 261 | 0.0 | 0.0 | 0.00 | 0.00 | 0.00 | 100 | 1024.9 |
| 20260509070059 | 52 | 261 | 0.0 | 0.0 | 0.00 | 0.00 | 0.00 | 100 | 1024.9 |
| 20260509064554 | 52 | 261 | 0.0 | 0.0 | 0.00 | 0.00 | 0.00 | 100 | 1025.1 |
| 20260509063051 | 51 | 261 | 0.0 | 0.0 | 0.00 | 0.00 | 0.00 | 100 | 1025.1 |
| 20260509061606 | 51 | 261 | 0.0 | 0.0 | 0.00 | 0.00 | 0.00 | 100 | 1025.2 |
| 20260509060104 | 51 | 261 | 0.0 | 0.0 | 0.00 | 0.00 | 0.00 | 100 | 1025.2 |
| 20260509054553 | 51 | 261 | 0.0 | 0.0 | 0.00 | 0.00 | 0.00 | 100 | 1025.3 |
| 20260509053049 | 51 | 261 | 0.0 | 0.0 | 0.00 | 0.00 | 0.00 | 100 | 1025.2 |
| 20260509051548 | 51 | 261 | 0.0 | 0.0 | 0.00 | 0.00 | 0.00 | 100 | 1025.4 |
| 20260509044557 | 51 | 261 | 0.0 | 0.0 | 0.00 | 0.00 | 0.00 | 98 | 1025.0 |
| 20260509043046 | 52 | 261 | 0.0 | 0.0 | 0.00 | 0.00 | 0.00 | 97 | 1024.9 |
| 20260509041546 | 53 | 261 | 0.0 | 0.0 | 0.00 | 0.00 | 0.00 | 95 | 1024.9 |
| 20260509040045 | 54 | 261 | 0.0 | 0.0 | 0.00 | 0.00 | 0.00 | 95 | 1025.0 |
| 20260509034545 | 54 | 261 | 0.0 | 2.0 | 0.00 | 0.00 | 0.00 | 95 | 1024.9 |
| 20260509033045 | 55 | 261 | 0.0 | 2.0 | 0.00 | 0.00 | 0.00 | 94 | 1025.0 |
| 20260509031548 | 55 | 274 | 1.0 | 4.0 | 0.00 | 0.00 | 0.00 | 94 | 1024.9 |
| 20260509030044 | 55 | 208 | 0.0 | 4.0 | 0.00 | 0.00 | 0.00 | 94 | 1024.8 |
| 20260509024543 | 55 | 209 | 3.0 | 7.0 | 0.00 | 0.00 | 0.00 | 93 | 1024.8 |
| 20260509023055 | 55 | 274 | 0.0 | 5.0 | 0.00 | 0.00 | 0.00 | 93 | 1024.9 |
| 20260509021542 | 55 | 225 | 1.0 | 8.0 | 0.00 | 0.00 | 0.00 | 92 | 1024.8 |
| 20260509020042 | 56 | 219 | 1.0 | 7.0 | 0.00 | 0.00 | 0.00 | 91 | 1024.9 |
| 20260509014544 | 56 | 219 | 1.0 | 9.0 | 0.00 | 0.00 | 0.00 | 90 | 1024.8 |
| 20260509013043 | 56 | 213 | 2.0 | 6.0 | 0.00 | 0.00 | 0.00 | 90 | 1024.8 |
| 20260509011540 | 56 | 237 | 8.0 | 13.0 | 0.00 | 0.00 | 0.00 | 88 | 1024.8 |
| 20260509010041 | 56 | 263 | 3.0 | 11.0 | 0.00 | 0.00 | 0.00 | 89 | 1024.8 |
| 20260509004541 | 56 | 200 | 3.0 | 13.0 | 0.00 | 0.00 | 0.00 | 89 | 1024.9 |
| 20260509003055 | 56 | 173 | 5.0 | 13.0 | 0.00 | 0.00 | 0.00 | 87 | 1024.9 |
| 20260509001538 | 57 | 219 | 8.0 | 14.0 | 0.00 | 0.00 | 0.00 | 87 | 1024.9 |
| 20260509000042 | 57 | 206 | 9.0 | 13.0 | 0.00 | 0.00 | 0.00 | 87 | 1025.0 |
| 20260508234540 | 57 | 218 | 5.0 | 16.0 | 0.00 | 0.00 | 0.00 | 86 | 1025.2 |
| 20260508233037 | 58 | 243 | 8.0 | 14.0 | 0.00 | 0.00 | 0.00 | 85 | 1025.1 |
| 20260508231536 | 58 | 280 | 3.0 | 14.0 | 0.00 | 0.00 | 0.00 | 84 | 1025.1 |
| 20260508230041 | 59 | 193 | 3.0 | 10.0 | 0.00 | 0.00 | 0.00 | 84 | 1025.0 |
| 20260508224535 | 58 | 219 | 5.0 | 17.0 | 0.00 | 0.00 | 0.00 | 83 | 1025.1 |
| 20260508223038 | 59 | 212 | 7.0 | 17.0 | 0.00 | 0.00 | 0.00 | 82 | 1025.1 |
| 20260508221536 | 58 | 199 | 9.0 | 19.0 | 0.00 | 0.00 | 0.00 | 82 | 1025.0 |
| 20260508220032 | 58 | 195 | 10.0 | 19.0 | 0.00 | 0.00 | 0.00 | 82 | 1025.0 |
| 20260508214531 | 58 | 200 | 10.0 | 18.0 | 0.00 | 0.00 | 0.00 | 83 | 1025.0 |
| 20260508213030 | 58 | 201 | 10.0 | 16.0 | 0.00 | 0.00 | 0.00 | 82 | 1024.9 |
| 20260508211529 | 58 | 235 | 5.0 | 17.0 | 0.00 | 0.00 | 0.00 | 81 | 1024.8 |
| 20260508210029 | 58 | 195 | 7.0 | 16.0 | 0.00 | 0.00 | 0.00 | 81 | 1024.7 |
| 20260508204532 | 57 | 209 | 7.0 | 20.0 | 0.00 | 0.00 | 0.00 | 83 | 1024.7 |
| 20260508203028 | 58 | 221 | 10.0 | 18.0 | 0.00 | 0.00 | 0.00 | 82 | 1024.6 |
| 20260508201527 | 59 | 199 | 8.0 | 16.0 | 0.00 | 0.00 | 0.00 | 79 | 1024.5 |
| 20260508200026 | 59 | 176 | 10.0 | 17.0 | 0.00 | 0.00 | 0.00 | 79 | 1024.3 |
| 20260508194538 | 60 | 207 | 5.0 | 16.0 | 0.00 | 0.00 | 0.00 | 79 | 1024.2 |
| 20260508193022 | 59 | 254 | 2.0 | 12.0 | 0.00 | 0.00 | 0.00 | 81 | 1024.0 |
| 20260508191520 | 59 | 218 | 3.0 | 11.0 | 0.00 | 0.00 | 0.00 | 80 | 1023.9 |
| 20260508190017 | 57 | 207 | 8.0 | 15.0 | 0.00 | 0.00 | 0.00 | 84 | 1024.1 |
| 20260508184514 | 55 | 202 | 7.0 | 13.0 | 0.00 | 0.00 | 0.00 | 84 | 1024.1 |
| 20260508183013 | 55 | 214 | 3.0 | 12.0 | 0.00 | 0.00 | 0.00 | 84 | 1024.3 |
| 20260508181520 | 55 | 192 | 2.0 | 15.0 | 0.00 | 0.00 | 0.00 | 85 | 1024.1 |
| 20260508180010 | 55 | 197 | 8.0 | 16.0 | 0.00 | 0.00 | 0.00 | 84 | 1024.1 |